Theta_e
316 313 312 314 314 313 314 315 319 318 312 312 316 319 321 318 322 320 313 311 312 315
316 314 315 316 316 314 317 316 317 317 317 319 319 319 319 319 319 318 318 314 316 321
316 314 315 316 315 316 317 317 316 316 317 318 319 319 319 316 316 318 319 320 320 320
313 314 316 315 316 316 318 317 316 315 316 317 317 318 320 319 318 318 319 320 319 318
313 312 315 316 316 317 316 316 315 315 315 316 317 318 317 316 317 316 316 317 318 317
317 317 316 316 318 316 316 314 315 314 314 315 316 316 317 316 316 317 317 316 316 316
316 317 318 318 318 317 317 313 313 315 314 314 315 315 315 316 318 317 317 318 317 317
318 317 318 318 317 317 317 316 316 314 314 314 314 312 315 317 316 316 316 316 316 317
318 317 317 317 317 318 318 318 317 316 315 316 313 303 304 309 317 317 316 316 317 318
316 316 317 316 316 317 319 319 318 317 317 316 315 300 301 303 319 318 319 318 319 317
314 314 313 317 317 318 321 319 319 318 317 317 311 299 299 302 319 319 319 319 319 320
316 314 314 313 317 319 319 321 320 319 316 315 315 298 297 303 320 319 318 319 319 319
318 317 316 315 315 318 319 321 318 319 318 306 315 297 297 301 313 316 314 318 318 309
319 319 319 321 320 315 316 316 318 318 319 317 314 311 297 296 310 311 312 313 314 315
Wind_Speed
9 8 5 7 7 7 7 7 8 5 3 6 8 7 4 5 3 8 5 4 2 1
9 9 9 7 7 7 7 7 8 9 9 9 10 8 7 7 8 8 6 2 4 3
11 10 8 8 7 7 7 7 8 9 9 8 10 10 7 6 3 4 4 3 5 5
8 10 10 7 6 7 7 7 8 8 8 7 8 8 7 8 7 8 6 6 6 7
5 5 7 7 7 6 7 8 6 7 6 7 7 7 6 9 8 8 7 7 6 7
7 5 5 5 7 7 7 6 6 6 6 7 7 7 7 7 7 7 7 6 6 5
9 8 6 6 7 6 7 6 6 6 6 5 6 6 6 6 6 6 7 6 6 6
8 7 7 7 7 8 8 8 7 6 5 5 4 7 10 6 6 6 6 6 6 7
7 7 7 6 6 6 7 7 7 7 6 6 6 7 8 11 4 4 5 5 5 5
7 7 5 5 4 5 6 5 6 6 6 6 6 9 8 8 6 3 4 4 4 2
4 4 7 5 5 3 2 4 4 6 6 5 6 7 7 7 7 4 3 3 3 4
6 5 3 5 4 3 4 2 3 3 4 5 4 5 8 10 4 3 4 4 4 5
6 7 6 5 5 5 4 3 3 2 1 2 4 5 4 8 7 3 6 5 3 5
6 6 6 6 4 5 5 5 5 5 4 5 2 1 2 5 8 7 8 4 3 8
Wind_Direction
0 344 336 342 340 347 340 354 357 2 335 317 312 312 327 336 338 80 82 47 312 4
353 348 341 339 324 355 342 348 1 2 348 355 359 13 55 33 52 77 92 180 227 157
360 347 334 332 347 343 348 357 356 355 350 358 13 23 57 60 43 81 91 82 73 68
347 341 348 350 353 351 353 2 357 355 347 5 18 35 50 59 48 52 63 68 71 71
326 323 332 355 360 358 2 4 352 360 359 5 29 38 27 35 29 29 28 32 42 45
347 329 334 355 12 5 4 16 6 17 15 11 11 22 29 22 29 41 40 41 48 52
3 8 17 21 19 20 36 37 30 28 28 14 14 19 16 18 29 55 60 60 60 63
1 34 38 35 35 41 44 46 51 44 36 29 31 30 350 13 51 57 74 70 72 59
20 31 39 35 40 39 38 41 38 41 38 29 63 18 342 325 49 64 74 81 79 111
23 3 33 37 34 28 21 24 35 35 27 33 31 11 340 322 304 0 31 28 20 10
24 1 334 344 3 2 31 7 29 38 35 28 71 19 346 314 285 339 343 322 316 328
355 1 2 324 328 317 339 32 35 34 23 20 41 40 357 330 280 34 294 283 288 319
347 345 348 351 314 323 313 276 287 310 310 105 321 112 15 347 311 16 320 234 234 117
307 299 307 312 284 291 291 321 286 275 271 272 302 347 98 350 310 351 316 351 48 74